Location: Unspecified
(48.8656°N, 0.0000°E)
Time: 04:30:45
(UTC+00:00)

Transit 2A Rocket - Pass Details

Date: 19 June 2019
Orbit: 590 x 913 km, 66.7° (Epoch: 16 August)

Event Time Altitude Azimuth Distance (km) Brightness Sun altitude
Rises 14:22:26 0° 289° (WNW) 3,519 8.8 52.4°
Reaches altitude 10° 14:26:18 10° 313° (NW) 2,540 8.0 51.8°
Maximum altitude 14:29:27 15° 345° (NNW) 2,190 7.4 51.4°
Drops below altitude 10° 14:32:30 10° 18° (NNE) 2,447 7.4 50.9°
Sets 14:36:07 0° 43° (NE) 3,310 7.9 50.4°
